TimeEDT,TemperatureF,Dew PointF,Humidity,Sea Level PressureIn,VisibilityMPH,Wind Direction,Wind SpeedMPH,Gust SpeedMPH,PrecipitationIn,Events,Conditions,WindDirDegrees,DateUTC
12:54 AM,51.1,46.0,83,30.16,10.0,Calm,Calm,-,N/A,,Clear,0,2013-05-08 04:54:00
1:54 AM,51.1,46.9,86,30.15,10.0,Calm,Calm,-,N/A,,Clear,0,2013-05-08 05:54:00
2:54 AM,48.9,46.0,90,30.15,10.0,Calm,Calm,-,N/A,,Clear,0,2013-05-08 06:54:00
3:54 AM,46.9,46.0,97,30.15,10.0,Calm,Calm,-,N/A,,Clear,0,2013-05-08 07:54:00
4:54 AM,46.9,46.0,97,30.16,10.0,Calm,Calm,-,N/A,,Clear,0,2013-05-08 08:54:00
5:54 AM,46.0,45.0,96,30.18,10.0,Calm,Calm,-,N/A,,Clear,0,2013-05-08 09:54:00
6:54 AM,48.9,46.9,93,30.19,10.0,Calm,Calm,-,N/A,,Clear,0,2013-05-08 10:54:00
7:42 AM,53.6,48.2,82,30.20,10.0,Calm,Calm,-,N/A,,Mostly Cloudy,0,2013-05-08 11:42:00
7:54 AM,55.9,50.0,80,30.20,10.0,Calm,Calm,-,N/A,,Scattered Clouds,0,2013-05-08 11:54:00
8:01 AM,57.2,51.8,82,30.20,10.0,Calm,Calm,-,N/A,,Mostly Cloudy,0,2013-05-08 12:01:00
8:11 AM,57.2,51.8,82,30.20,10.0,Calm,Calm,-,N/A,,Partly Cloudy,0,2013-05-08 12:11:00
8:54 AM,62.1,53.1,72,30.21,10.0,Calm,Calm,-,N/A,,Scattered Clouds,0,2013-05-08 12:54:00
9:54 AM,68.0,55.0,63,30.18,10.0,East,5.8,-,N/A,,Clear,100,2013-05-08 13:54:00
11:54 AM,64.0,57.9,80,30.18,4.0,SSE,11.5,25.3,0.00,Rain,Light Rain,150,2013-05-08 15:54:00
12:54 PM,72.0,57.0,59,30.14,10.0,South,11.5,16.1,0.00,,Mostly Cloudy,170,2013-05-08 16:54:00
1:54 PM,70.0,61.0,73,30.12,10.0,NNE,4.6,-,0.03,,Overcast,20,2013-05-08 17:54:00
2:54 PM,64.9,59.0,81,30.12,10.0,Calm,Calm,-,0.03,,Overcast,0,2013-05-08 18:54:00
3:54 PM,68.0,57.9,70,30.10,10.0,ESE,4.6,-,N/A,,Mostly Cloudy,120,2013-05-08 19:54:00
4:54 PM,68.0,57.9,70,30.09,10.0,NE,3.5,-,N/A,,Overcast,50,2013-05-08 20:54:00
5:13 PM,64.4,60.8,88,30.10,1.8,SSE,15.0,25.3,0.09,Rain,Heavy Rain,150,2013-05-08 21:13:00
5:35 PM,62.6,60.8,94,30.10,2.0,SE,4.6,-,0.26,Rain,Rain,130,2013-05-08 21:35:00
5:42 PM,62.6,60.8,94,30.09,9.0,Calm,Calm,-,0.26,Rain,Light Rain,0,2013-05-08 21:42:00
5:54 PM,63.0,60.1,90,30.09,10.0,Calm,Calm,-,0.26,Rain,Light Rain,0,2013-05-08 21:54:00
6:54 PM,62.1,60.1,93,30.08,10.0,Calm,Calm,-,0.02,,Overcast,0,2013-05-08 22:54:00
7:54 PM,62.1,60.1,93,30.07,6.0,North,3.5,-,0.04,Rain,Light Rain,10,2013-05-08 23:54:00
8:08 PM,60.8,59.0,94,30.07,3.0,Calm,Calm,-,0.02,Rain,Light Rain,0,2013-05-09 00:08:00
8:38 PM,60.8,60.8,100,30.07,2.5,SW,5.8,-,0.11,Rain,Light Rain,220,2013-05-09 00:38:00
8:46 PM,60.8,60.8,100,30.07,6.0,Calm,Calm,-,0.12,Rain,Light Rain,0,2013-05-09 00:46:00
8:54 PM,61.0,59.0,93,30.07,10.0,Variable,4.6,-,0.12,Rain,Light Rain,0,2013-05-09 00:54:00
9:15 PM,60.8,60.8,100,30.07,6.0,Calm,Calm,-,0.02,Rain,Light Rain,0,2013-05-09 01:15:00
9:30 PM,60.8,60.8,100,30.07,10.0,Calm,Calm,-,0.03,Rain,Light Rain,0,2013-05-09 01:30:00
9:54 PM,61.0,60.1,97,30.07,10.0,Calm,Calm,-,0.04,,Overcast,0,2013-05-09 01:54:00
10:24 PM,60.8,60.8,100,30.06,1.8,Calm,Calm,-,0.12,Rain,Heavy Rain,0,2013-05-09 02:24:00
10:33 PM,60.8,59.0,94,30.06,2.0,Calm,Calm,-,0.16,Rain,Heavy Rain,0,2013-05-09 02:33:00
10:45 PM,60.8,60.8,100,30.06,4.0,Calm,Calm,-,0.18,Rain,Light Rain,0,2013-05-09 02:45:00
10:54 PM,61.0,60.1,97,30.05,5.0,Calm,Calm,-,0.19,Rain,Light Rain,0,2013-05-09 02:54:00
11:07 PM,60.8,59.0,94,30.05,10.0,Calm,Calm,-,0.00,,Overcast,0,2013-05-09 03:07:00
11:54 PM,61.0,59.0,93,30.04,4.0,SE,5.8,-,0.03,Rain,Rain,140,2013-05-09 03:54:00